LiveATC.Net - Listen to live air traffic control over the Internet!


ICAO: KUUU  IATA: UUU   Airport: Newport State Airport
City: Newport   State/Province: Rhode Island
Country: United States   Continent: North America
KUUU METAR Weather: KUUU 251653Z AUTO VRB06KT 10SM CLR 20/09 A3020 RMK AO2 SLP225 T02000094
KUUU Flight Activity (FlightAware)
KUUU Airport Info   (iFlightPlanner)
KUUU VFR Sectional Chart   (iFlightPlanner) 
KUUU IFR Low Chart   (iFlightPlanner) 

KUUU CTAF/Del
Feed Status: UP   Listeners: 0
Listen in your browser - HTML5 player (in browser, HTML5)
Click here to listen with your own player (launches your MP3 player)
KUUU CTAF/Del Audio Archives
FacilityFrequency
Clearance Delivery (Providence Approach)127.250
Newport CTAF123.050

NOTICE

Unauthorized use prohibited. See LiveATC.net Terms of Service


Find LiveATC Audio Streams


Airport/ARTCC Code

Frequency Search
(e.g., 124.400, 128.75)
Site-wide search
 


Browse LiveATC Feeds
Top 50 LiveATC Feeds
LiveATC Feed Map
Bad Weather Areas

LiveATC FAQ
Offer LiveATC feed
Contact LiveATC.net
Press Inquiries

LiveATC on iPhone
LiveATC on Android

Windows Phone
Windows 8/10

LiveATC Mobile
(Mobile browser)

ATC Audio Archives
Interesting Recordings

LiveATC Forums


Home Page
About LiveATC.net
Make a Donation
Terms of Use
Privacy Policy

Canadian Air Freqs

AIRMETs/SIGMETs

FAA Airport Status
Nat'l Airspace Status
Arrival Demand Charts


Server Software By:
Icecast.org
Liquidsoap